{"data":{"norad_id":45531,"intl_designator":"2020-025A","name":"STARLINK-1329","alt_names":[],"object_type":"PAYLOAD","status":"ACTIVE","operator":null,"country":"US","launch_date":"2020-04-22","launch_site_code":"AFETR","launch_vehicle":null,"mission":null,"orbit_class":"UNKNOWN","rcs_meters":null,"size_class":null,"mass_kg":null,"dimensions":null,"purposes":["comms"],"wikipedia_slug":null,"has_3d_model":false,"image_url":null,"decayed_at":null,"tle_current":{"epoch":"2026-09-20T06:00:02.000160Z","epoch_age_seconds":36088,"freshness":"FRESH","line1":"1 45531U 20025A   26263.25002315  .01104497  60523-3  23532-2 0  9996","line2":"2 45531  53.0302 191.6523 0001034 109.5337  15.5748 15.98190070  5821","mean_motion":15.9819007,"eccentricity":0.0001034,"inclination_deg":53.0302,"raan_deg":191.6523,"arg_perigee_deg":109.5337,"mean_anomaly_deg":15.5748,"bstar":0.0023532,"rev_number":582,"period_min":90.101923859407,"perigee_km":278.75198364216,"apogee_km":280.12877064376,"semimajor_km":6657.577377143,"source":"CELESTRAK","updated_at":"2026-09-20T09:00:38.445165Z"}}}